QPF
0.00 0.00 0.00 0.02 0.02 0.02 0.02 0.01 0.01 0.01 0.01 0.02 0.02 0.02 0.02 0.03 0.05 0.07 0.04 0.02 0.01 0.01 0.01 0.01 0.02 0.01 0.00 0.00 0.00 0.00 0.00 0.00 0.00 0.00 0.00 0.00 0.00 0.00 0.00 0.01 0.01 0.01 0.01 0.01 0.01 0.01 0.01 0.01 0.02
0.00 0.00 0.01 0.02 0.02 0.01 0.01 0.01 0.01 0.01 0.01 0.01 0.02 0.02 0.03 0.03 0.03 0.03 0.02 0.02 0.01 0.01 0.01 0.01 0.01 0.02 0.01 0.00 0.00 0.00 0.00 0.00 0.00 0.00 0.00 0.00 0.00 0.01 0.01 0.01 0.01 0.01 0.01 0.01 0.01 0.01 0.01 0.01 0.02
0.00 0.00 0.01 0.03 0.02 0.01 0.01 0.00 0.01 0.01 0.03 0.03 0.03 0.02 0.04 0.04 0.03 0.03 0.02 0.02 0.02 0.02 0.01 0.01 0.02 0.01 0.01 0.00 0.00 0.00 0.00 0.00 0.00 0.00 0.00 0.00 0.00 0.01 0.01 0.01 0.01 0.01 0.01 0.01 0.01 0.00 0.01 0.01 0.02
0.00 0.00 0.01 0.02 0.01 0.00 0.00 0.00 0.01 0.01 0.03 0.04 0.04 0.04 0.03 0.04 0.05 0.07 0.05 0.03 0.03 0.02 0.01 0.01 0.01 0.01 0.01 0.00 0.00 0.00 0.00 0.00 0.00 0.00 0.00 0.01 0.01 0.01 0.01 0.01 0.01 0.01 0.00 0.01 0.01 0.00 0.00 0.01 0.02
0.00 0.00 0.01 0.01 0.00 0.00 0.00 0.00 0.01 0.03 0.04 0.05 0.05 0.04 0.03 0.04 0.05 0.06 0.07 0.06 0.04 0.03 0.02 0.02 0.02 0.01 0.01 0.00 0.00 0.00 0.00 0.00 0.01 0.00 0.01 0.01 0.01 0.01 0.01 0.01 0.01 0.01 0.01 0.00 0.01 0.01 0.01 0.01 0.02
0.00 0.01 0.01 0.00 0.00 0.00 0.00 0.00 0.01 0.01 0.01 0.03 0.02 0.02 0.03 0.05 0.09 0.10 0.09 0.09 0.12 0.09 0.05 0.03 0.04 0.02 0.01 0.00 0.00 0.00 0.01 0.01 0.01 0.00 0.00 0.01 0.01 0.01 0.01 0.01 0.01 0.01 0.02 0.01 0.01 0.01 0.02 0.02 0.02
0.00 0.01 0.01 0.00 0.00 0.00 0.00 0.00 0.00 0.00 0.00 0.00 0.01 0.01 0.03 0.05 0.11 0.11 0.13 0.18 0.23 0.16 0.09 0.04 0.03 0.02 0.01 0.01 0.01 0.01 0.01 0.01 0.01 0.01 0.01 0.01 0.02 0.02 0.01 0.02 0.02 0.02 0.02 0.02 0.02 0.01 0.02 0.02 0.02
0.00 0.00 0.00 0.00 0.00 0.00 0.00 0.00 0.00 0.00 0.01 0.01 0.01 0.02 0.02 0.03 0.07 0.13 0.19 0.24 0.33 0.20 0.13 0.07 0.03 0.03 0.02 0.02 0.01 0.01 0.01 0.01 0.02 0.02 0.02 0.02 0.02 0.02 0.02 0.01 0.02 0.02 0.02 0.02 0.02 0.01 0.01 0.02 0.02
0.00 0.00 0.00 0.00 0.00 0.00 0.00 0.00 0.00 0.00 0.01 0.01 0.01 0.01 0.01 0.05 0.13 0.19 0.28 0.26 0.28 0.16 0.09 0.07 0.06 0.03 0.03 0.02 0.02 0.02 0.01 0.02 0.02 0.02 0.02 0.03 0.02 0.02 0.02 0.02 0.02 0.02 0.02 0.02 0.02 0.03 0.02 0.02 0.02
0.00 0.00 0.00 0.00 0.00 0.00 0.00 0.00 0.00 0.01 0.01 0.01 0.01 0.01 0.02 0.06 0.18 0.24 0.26 0.22 0.16 0.11 0.06 0.07 0.06 0.03 0.02 0.02 0.02 0.02 0.02 0.02 0.01 0.01 0.01 0.01 0.01 0.01 0.01 0.02 0.03 0.03 0.03 0.03 0.03 0.04 0.03 0.02 0.01
0.00 0.00 0.00 0.00 0.00 0.00 0.00 0.00 0.00 0.00 0.01 0.00 0.01 0.01 0.02 0.07 0.17 0.24 0.25 0.20 0.15 0.10 0.07 0.06 0.05 0.04 0.03 0.02 0.02 0.01 0.01 0.01 0.00 0.00 0.01 0.01 0.01 0.01 0.01 0.01 0.03 0.03 0.03 0.02 0.02 0.02 0.01 0.01 0.01
0.00 0.00 0.00 0.00 0.00 0.00 0.00 0.00 0.00 0.00 0.00 0.00 0.01 0.01 0.04 0.07 0.14 0.23 0.25 0.19 0.14 0.10 0.08 0.05 0.05 0.04 0.04 0.03 0.02 0.01 0.01 0.00 0.00 0.00 0.01 0.01 0.01 0.01 0.01 0.01 0.02 0.02 0.02 0.01 0.01 0.01 0.01 0.01 0.02
0.00 0.00 0.00 0.00 0.00 0.00 0.00 0.00 0.00 0.00 0.00 0.01 0.02 0.03 0.05 0.06 0.09 0.15 0.27 0.21 0.13 0.10 0.10 0.07 0.05 0.04 0.04 0.04 0.03 0.02 0.01 0.01 0.01 0.01 0.02 0.02 0.02 0.02 0.01 0.01 0.01 0.01 0.01 0.01 0.02 0.02 0.01 0.02 0.02
0.00 0.00 0.00 0.00 0.01 0.01 0.00 0.00 0.00 0.00 0.01 0.01 0.03 0.04 0.07 0.06 0.09 0.12 0.21 0.22 0.13 0.12 0.11 0.09 0.05 0.05 0.04 0.05 0.05 0.04 0.02 0.02 0.02 0.02 0.02 0.01 0.01 0.01 0.01 0.01 0.01 0.00 0.00 0.01 0.01 0.01 0.02 0.02 0.02
0.00 0.00 0.00 0.01 0.01 0.01 0.00 0.00 0.00 0.00 0.01 0.02 0.04 0.05 0.06 0.09 0.15 0.15 0.15 0.15 0.14 0.13 0.12 0.11 0.08 0.08 0.07 0.07 0.06 0.05 0.04 0.03 0.03 0.02 0.01 0.01 0.01 0.01 0.00 0.01 0.01 0.00 0.00 0.00 0.01 0.01 0.02 0.01 0.01
0.00 0.00 0.00 0.00 0.00 0.00 0.01 0.01 0.01 0.01 0.01 0.03 0.06 0.09 0.07 0.10 0.17 0.18 0.16 0.15 0.17 0.14 0.12 0.11 0.09 0.09 0.08 0.09 0.08 0.08 0.07 0.05 0.03 0.02 0.01 0.01 0.01 0.01 0.01 0.00 0.00 0.00 0.00 0.00 0.00 0.01 0.02 0.01 0.01
0.00 0.00 0.00 0.01 0.00 0.00 0.01 0.01 0.00 0.00 0.01 0.02 0.04 0.06 0.05 0.08 0.09 0.15 0.16 0.19 0.19 0.14 0.13 0.12 0.14 0.12 0.11 0.12 0.11 0.09 0.07 0.04 0.03 0.02 0.01 0.01 0.01 0.00 0.00 0.00 0.00 0.00 0.00 0.00 0.00 0.00 0.00 0.01 0.01
0.00 0.00 0.00 0.00 0.00 0.00 0.01 0.00 0.00 0.01 0.01 0.02 0.03 0.03 0.03 0.05 0.07 0.13 0.17 0.25 0.33 0.30 0.24 0.21 0.22 0.17 0.14 0.13 0.09 0.08 0.07 0.05 0.03 0.01 0.01 0.00 0.00 0.00 0.00 0.00 0.00 0.00 0.00 0.00 0.00 0.00 0.00 0.00 0.01
0.00 0.00 0.00 0.00 0.00 0.00 0.00 0.00 0.00 0.01 0.01 0.02 0.02 0.02 0.03 0.04 0.08 0.13 0.15 0.22 0.34 0.43 0.35 0.27 0.25 0.21 0.16 0.11 0.08 0.06 0.05 0.05 0.03 0.01 0.00 0.00 0.00 0.00 0.00 0.00 0.00 0.00 0.00 0.00 0.00 0.00 0.00 0.00 0.00
0.00 0.00 0.00 0.00 0.00 0.00 0.00 0.00 0.00 0.00 0.01 0.01 0.02 0.02 0.03 0.05 0.07 0.09 0.12 0.17 0.26 0.38 0.37 0.34 0.27 0.21 0.16 0.12 0.10 0.10 0.08 0.06 0.04 0.01 0.01 0.00 0.00 0.00 0.00 0.00 0.00 0.00 0.00 0.00 0.00 0.00 0.00 0.00 0.00
0.00 0.00 0.00 0.00 0.00 0.00 0.00 0.00 0.00 0.01 0.01 0.01 0.02 0.02 0.02 0.04 0.04 0.05 0.08 0.16 0.26 0.29 0.31 0.33 0.35 0.26 0.19 0.16 0.13 0.12 0.10 0.06 0.04 0.02 0.01 0.01 0.00 0.00 0.00 0.00 0.00 0.00 0.00 0.00 0.00 0.00 0.00 0.00 0.00
0.00 0.00 0.00 0.00 0.00 0.01 0.01 0.00 0.00 0.01 0.01 0.01 0.01 0.01 0.01 0.02 0.02 0.03 0.05 0.10 0.20 0.21 0.21 0.22 0.25 0.25 0.20 0.17 0.16 0.11 0.08 0.07 0.05 0.04 0.03 0.01 0.01 0.00 0.00 0.00 0.00 0.00 0.00 0.00 0.00 0.00 0.00 0.00 0.00
0.00 0.00 0.00 0.00 0.00 0.00 0.00 0.00 0.00 0.00 0.00 0.00 0.00 0.00 0.01 0.01 0.01 0.01 0.03 0.06 0.14 0.14 0.14 0.17 0.19 0.20 0.18 0.15 0.12 0.10 0.06 0.04 0.05 0.05 0.04 0.02 0.01 0.00 0.00 0.00 0.00 0.00 0.00 0.00 0.00 0.00 0.00 0.00 0.00
0.00 0.00 0.00 0.00 0.00 0.00 0.00 0.00 0.00 0.00 0.00 0.00 0.00 0.00 0.00 0.01 0.01 0.02 0.02 0.04 0.12 0.10 0.10 0.13 0.13 0.13 0.15 0.12 0.09 0.06 0.04 0.04 0.05 0.05 0.03 0.02 0.01 0.00 0.00 0.00 0.00 0.00 0.00 0.00 0.00 0.00 0.00 0.00 0.00
0.00 0.00 0.00 0.00 0.00 0.00 0.00 0.00 0.01 0.00 0.00 0.00 0.00 0.00 0.00 0.01 0.01 0.01 0.02 0.03 0.09 0.07 0.08 0.10 0.11 0.11 0.12 0.10 0.07 0.05 0.04 0.04 0.05 0.05 0.04 0.02 0.01 0.00 0.00 0.00 0.00 0.00 0.00 0.00 0.00 0.00 0.00 0.00 0.00
0.00 0.00 0.00 0.00 0.00 0.00 0.00 0.00 0.00 0.00 0.00 0.00 0.00 0.00 0.00 0.00 0.00 0.01 0.02 0.03 0.07 0.05 0.06 0.09 0.11 0.10 0.09 0.09 0.07 0.07 0.06 0.04 0.04 0.05 0.04 0.02 0.01 0.00 0.00 0.00 0.00 0.00 0.00 0.00 0.00 0.00 0.00 0.00 0.00
0.00 0.00 0.01 0.01 0.01 0.00 0.00 0.00 0.00 0.00 0.01 0.00 0.00 0.00 0.00 0.00 0.00 0.00 0.01 0.03 0.04 0.04 0.04 0.06 0.08 0.08 0.08 0.07 0.07 0.07 0.07 0.05 0.04 0.05 0.04 0.03 0.02 0.01 0.00 0.00 0.00 0.00 0.00 0.00 0.00 0.00 0.00 0.00 0.00
0.00 0.01 0.01 0.02 0.01 0.01 0.00 0.00 0.00 0.01 0.00 0.00 0.00 0.00 0.00 0.00 0.00 0.00 0.01 0.02 0.03 0.03 0.05 0.07 0.08 0.09 0.09 0.07 0.06 0.06 0.05 0.05 0.04 0.04 0.05 0.05 0.03 0.01 0.01 0.00 0.00 0.00 0.00 0.00 0.00 0.00 0.00 0.00 0.00
0.01 0.01 0.01 0.01 0.01 0.01 0.01 0.00 0.01 0.01 0.00 0.00 0.00 0.00 0.00 0.00 0.01 0.01 0.01 0.01 0.02 0.03 0.05 0.06 0.09 0.10 0.09 0.07 0.07 0.06 0.05 0.05 0.04 0.05 0.05 0.05 0.04 0.02 0.01 0.01 0.00 0.00 0.00 0.00 0.00 0.00 0.00 0.00 0.00
0.00 0.00 0.01 0.01 0.01 0.01 0.01 0.01 0.00 0.00 0.00 0.00 0.00 0.01 0.01 0.01 0.01 0.01 0.01 0.01 0.02 0.02 0.03 0.04 0.07 0.08 0.07 0.07 0.07 0.06 0.05 0.04 0.04 0.05 0.05 0.05 0.05 0.03 0.01 0.01 0.01 0.01 0.01 0.01 0.00 0.00 0.00 0.00 0.00
MSLP
1008.82 1009.88 1011.05 1012.15 1013.00 1013.52 1013.66 1013.48 1013.09 1012.62 1012.20 1011.91 1011.77 1011.76 1011.80 1011.82 1011.76 1011.60 1011.37 1011.12 1010.92 1010.85 1010.94 1011.20 1011.59 1012.04 1012.48 1012.86 1013.14 1013.33 1013.44 1013.52 1013.61 1013.74 1013.93 1014.16 1014.41 1014.64 1014.85 1014.99 1015.09 1015.16 1015.20 1015.24 1015.28 1015.33 1015.39 1015.44 1015.49
1009.18 1010.37 1011.61 1012.68 1013.43 1013.78 1013.71 1013.32 1012.72 1012.08 1011.53 1011.15 1010.97 1010.94 1011.00 1011.06 1011.05 1010.96 1010.80 1010.64 1010.55 1010.58 1010.78 1011.13 1011.60 1012.12 1012.62 1013.04 1013.35 1013.56 1013.70 1013.80 1013.92 1014.07 1014.26 1014.48 1014.71 1014.91 1015.07 1015.18 1015.25 1015.28 1015.32 1015.35 1015.41 1015.46 1015.52 1015.57 1015.61
1009.70 1010.97 1012.19 1013.17 1013.76 1013.90 1013.62 1013.02 1012.25 1011.48 1010.85 1010.44 1010.26 1010.25 1010.35 1010.45 1010.49 1010.46 1010.37 1010.29 1010.28 1010.41 1010.69 1011.12 1011.66 1012.23 1012.76 1013.21 1013.54 1013.76 1013.91 1014.03 1014.16 1014.32 1014.52 1014.73 1014.94 1015.11 1015.24 1015.32 1015.37 1015.40 1015.43 1015.48 1015.55 1015.63 1015.69 1015.74 1015.78
1010.35 1011.62 1012.76 1013.57 1013.96 1013.88 1013.39 1012.62 1011.73 1010.90 1010.26 1009.88 1009.73 1009.78 1009.92 1010.07 1010.16 1010.17 1010.14 1010.12 1010.17 1010.37 1010.71 1011.20 1011.78 1012.37 1012.91 1013.36 1013.68 1013.91 1014.06 1014.18 1014.32 1014.49 1014.69 1014.90 1015.10 1015.26 1015.37 1015.45 1015.49 1015.53 1015.58 1015.66 1015.75 1015.84 1015.92 1015.98 1016.00
1011.07 1012.27 1013.24 1013.85 1014.00 1013.70 1013.03 1012.15 1011.21 1010.39 1009.80 1009.49 1009.43 1009.55 1009.75 1009.95 1010.07 1010.11 1010.11 1010.13 1010.23 1010.46 1010.85 1011.36 1011.95 1012.54 1013.06 1013.48 1013.78 1013.98 1014.13 1014.25 1014.40 1014.58 1014.79 1015.01 1015.21 1015.38 1015.50 1015.58 1015.64 1015.70 1015.78 1015.89 1016.00 1016.12 1016.21 1016.26 1016.28
1011.76 1012.81 1013.57 1013.93 1013.84 1013.35 1012.55 1011.61 1010.69 1009.95 1009.47 1009.28 1009.33 1009.54 1009.81 1010.04 1010.18 1010.24 1010.25 1010.29 1010.41 1010.67 1011.07 1011.58 1012.15 1012.71 1013.19 1013.57 1013.83 1014.00 1014.13 1014.25 1014.41 1014.61 1014.85 1015.09 1015.32 1015.51 1015.65 1015.75 1015.83 1015.92 1016.02 1016.15 1016.29 1016.41 1016.51 1016.56 1016.57
1012.30 1013.15 1013.66 1013.76 1013.45 1012.80 1011.93 1010.99 1010.15 1009.54 1009.22 1009.17 1009.35 1009.65 1009.97 1010.23 1010.39 1010.45 1010.48 1010.53 1010.66 1010.93 1011.33 1011.82 1012.36 1012.87 1013.30 1013.62 1013.84 1013.98 1014.10 1014.23 1014.41 1014.64 1014.91 1015.19 1015.44 1015.66 1015.82 1015.94 1016.04 1016.14 1016.27 1016.41 1016.55 1016.69 1016.78 1016.83 1016.83
1012.62 1013.23 1013.48 1013.34 1012.84 1012.07 1011.17 1010.29 1009.57 1009.11 1008.95 1009.06 1009.36 1009.74 1010.10 1010.39 1010.56 1010.63 1010.67 1010.73 1010.89 1011.16 1011.56 1012.03 1012.53 1012.99 1013.37 1013.64 1013.82 1013.94 1014.06 1014.21 1014.42 1014.69 1015.00 1015.32 1015.60 1015.84 1016.02 1016.14 1016.25 1016.35 1016.47 1016.61 1016.76 1016.89 1016.99 1017.03 1017.03
1012.65 1013.02 1013.03 1012.67 1012.02 1011.18 1010.29 1009.49 1008.91 1008.61 1008.61 1008.84 1009.24 1009.68 1010.08 1010.39 1010.57 1010.67 1010.73 1010.83 1011.01 1011.31 1011.71 1012.17 1012.64 1013.06 1013.39 1013.63 1013.79 1013.92 1014.05 1014.23 1014.48 1014.79 1015.14 1015.49 1015.80 1016.05 1016.22 1016.34 1016.43 1016.52 1016.62 1016.75 1016.88 1017.01 1017.10 1017.15 1017.15
1012.43 1012.58 1012.37 1011.84 1011.08 1010.21 1009.36 1008.65 1008.19 1008.02 1008.14 1008.46 1008.92 1009.40 1009.82 1010.15 1010.36 1010.49 1010.60 1010.75 1010.99 1011.32 1011.74 1012.21 1012.66 1013.07 1013.38 1013.61 1013.77 1013.91 1014.07 1014.29 1014.58 1014.94 1015.32 1015.69 1016.01 1016.25 1016.42 1016.52 1016.58 1016.64 1016.71 1016.81 1016.94 1017.06 1017.16 1017.22 1017.24
1012.04 1012.00 1011.62 1010.97 1010.14 1009.27 1008.46 1007.83 1007.46 1007.38 1007.56 1007.93 1008.40 1008.88 1009.32 1009.66 1009.91 1010.09 1010.27 1010.50 1010.80 1011.19 1011.65 1012.14 1012.61 1013.01 1013.33 1013.57 1013.76 1013.93 1014.13 1014.40 1014.73 1015.11 1015.52 1015.90 1016.21 1016.45 1016.59 1016.66 1016.69 1016.71 1016.76 1016.85 1016.96 1017.08 1017.20 1017.28 1017.33
1011.60 1011.41 1010.92 1010.19 1009.34 1008.47 1007.71 1007.14 1006.81 1006.76 1006.94 1007.29 1007.74 1008.20 1008.63 1008.98 1009.27 1009.53 1009.79 1010.10 1010.48 1010.94 1011.45 1011.97 1012.47 1012.90 1013.25 1013.52 1013.75 1013.97 1014.22 1014.52 1014.89 1015.29 1015.71 1016.08 1016.39 1016.60 1016.73 1016.77 1016.78 1016.79 1016.82 1016.89 1017.01 1017.14 1017.28 1017.39 1017.47
1011.24 1010.96 1010.40 1009.64 1008.79 1007.95 1007.22 1006.67 1006.35 1006.27 1006.40 1006.68 1007.06 1007.47 1007.87 1008.24 1008.57 1008.89 1009.23 1009.63 1010.09 1010.61 1011.16 1011.73 1012.26 1012.73 1013.13 1013.46 1013.75 1014.02 1014.32 1014.66 1015.05 1015.46 1015.86 1016.23 1016.52 1016.72 1016.84 1016.88 1016.89 1016.89 1016.93 1017.01 1017.13 1017.29 1017.45 1017.60 1017.70
1011.09 1010.75 1010.16 1009.42 1008.60 1007.79 1007.08 1006.53 1006.17 1006.02 1006.05 1006.23 1006.51 1006.84 1007.20 1007.56 1007.92 1008.30 1008.70 1009.16 1009.67 1010.23 1010.83 1011.43 1012.00 1012.52 1012.98 1013.38 1013.74 1014.09 1014.43 1014.80 1015.20 1015.60 1015.98 1016.33 1016.61 1016.81 1016.93 1016.99 1017.02 1017.05 1017.12 1017.22 1017.37 1017.55 1017.73 1017.91 1018.04
1011.17 1010.81 1010.24 1009.53 1008.77 1008.01 1007.31 1006.74 1006.32 1006.07 1005.97 1006.02 1006.18 1006.43 1006.73 1007.07 1007.44 1007.84 1008.28 1008.76 1009.29 1009.86 1010.47 1011.09 1011.70 1012.28 1012.81 1013.30 1013.74 1014.16 1014.55 1014.94 1015.33 1015.71 1016.07 1016.39 1016.66 1016.86 1017.01 1017.12 1017.20 1017.28 1017.39 1017.53 1017.70 1017.90 1018.11 1018.30 1018.45
1011.45 1011.09 1010.57 1009.94 1009.25 1008.54 1007.88 1007.28 1006.79 1006.43 1006.20 1006.11 1006.15 1006.29 1006.53 1006.83 1007.18 1007.57 1008.00 1008.46 1008.97 1009.52 1010.11 1010.73 1011.37 1012.00 1012.62 1013.21 1013.74 1014.24 1014.69 1015.10 1015.47 1015.82 1016.14 1016.43 1016.69 1016.91 1017.10 1017.26 1017.41 1017.56 1017.72 1017.90 1018.10 1018.31 1018.52 1018.72 1018.88
1011.83 1011.51 1011.06 1010.53 1009.94 1009.32 1008.69 1008.09 1007.53 1007.06 1006.70 1006.48 1006.39 1006.43 1006.59 1006.84 1007.15 1007.50 1007.87 1008.28 1008.72 1009.20 1009.75 1010.35 1011.01 1011.71 1012.42 1013.10 1013.75 1014.33 1014.84 1015.27 1015.63 1015.95 1016.23 1016.48 1016.73 1016.96 1017.20 1017.42 1017.64 1017.86 1018.07 1018.29 1018.50 1018.71 1018.92 1019.11 1019.26
1012.18 1011.92 1011.58 1011.18 1010.72 1010.21 1009.64 1009.04 1008.43 1007.87 1007.39 1007.04 1006.84 1006.79 1006.87 1007.05 1007.30 1007.58 1007.88 1008.19 1008.53 1008.93 1009.40 1009.97 1010.65 1011.40 1012.20 1013.00 1013.76 1014.44 1015.01 1015.46 1015.82 1016.09 1016.33 1016.55 1016.77 1017.02 1017.29 1017.58 1017.86 1018.14 1018.40 1018.64 1018.85 1019.06 1019.24 1019.41 1019.56
1012.37 1012.21 1012.02 1011.79 1011.49 1011.11 1010.61 1010.03 1009.39 1008.74 1008.16 1007.70 1007.39 1007.25 1007.26 1007.38 1007.56 1007.77 1007.98 1008.19 1008.42 1008.71 1009.10 1009.62 1010.30 1011.10 1011.99 1012.90 1013.77 1014.54 1015.18 1015.67 1016.01 1016.26 1016.45 1016.63 1016.84 1017.09 1017.38 1017.71 1018.05 1018.38 1018.67 1018.92 1019.13 1019.31 1019.47 1019.61 1019.76
1012.33 1012.31 1012.31 1012.28 1012.18 1011.94 1011.53 1010.98 1010.30 1009.58 1008.89 1008.33 1007.93 1007.71 1007.66 1007.73 1007.87 1008.01 1008.14 1008.25 1008.37 1008.56 1008.86 1009.33 1010.00 1010.83 1011.79 1012.79 1013.77 1014.63 1015.34 1015.85 1016.20 1016.42 1016.58 1016.72 1016.91 1017.15 1017.46 1017.83 1018.20 1018.56 1018.87 1019.12 1019.31 1019.46 1019.59 1019.72 1019.85
1012.07 1012.24 1012.46 1012.66 1012.76 1012.67 1012.35 1011.81 1011.10 1010.29 1009.51 1008.84 1008.35 1008.07 1007.98 1008.03 1008.15 1008.26 1008.35 1008.39 1008.43 1008.52 1008.74 1009.15 1009.79 1010.63 1011.63 1012.70 1013.74 1014.68 1015.44 1015.99 1016.35 1016.56 1016.69 1016.80 1016.97 1017.21 1017.53 1017.91 1018.30 1018.68 1019.00 1019.24 1019.42 1019.54 1019.65 1019.76 1019.89
1011.66 1012.05 1012.52 1012.96 1013.26 1013.31 1013.07 1012.52 1011.75 1010.84 1009.95 1009.17 1008.61 1008.28 1008.18 1008.24 1008.37 1008.51 1008.59 1008.61 1008.60 1008.64 1008.79 1009.13 1009.72 1010.53 1011.53 1012.62 1013.70 1014.68 1015.47 1016.05 1016.41 1016.62 1016.74 1016.85 1017.00 1017.24 1017.57 1017.96 1018.37 1018.76 1019.08 1019.32 1019.49 1019.59 1019.67 1019.77 1019.89
1011.23 1011.86 1012.59 1013.26 1013.73 1013.89 1013.68 1013.11 1012.24 1011.22 1010.19 1009.31 1008.68 1008.32 1008.23 1008.34 1008.54 1008.75 1008.88 1008.93 1008.92 1008.92 1009.02 1009.29 1009.81 1010.56 1011.50 1012.57 1013.63 1014.61 1015.42 1016.01 1016.39 1016.61 1016.73 1016.85 1017.01 1017.25 1017.59 1018.00 1018.42 1018.82 1019.15 1019.38 1019.54 1019.63 1019.70 1019.78 1019.91
1010.89 1011.76 1012.72 1013.59 1014.20 1014.43 1014.21 1013.56 1012.58 1011.42 1010.26 1009.27 1008.57 1008.21 1008.16 1008.35 1008.66 1008.98 1009.22 1009.35 1009.38 1009.38 1009.44 1009.64 1010.07 1010.72 1011.57 1012.55 1013.56 1014.50 1015.29 1015.88 1016.27 1016.51 1016.66 1016.79 1016.97 1017.24 1017.60 1018.02 1018.46 1018.86 1019.20 1019.44 1019.59 1019.68 1019.74 1019.82 1019.95
1010.72 1011.80 1012.95 1013.96 1014.65 1014.89 1014.63 1013.88 1012.76 1011.45 1010.16 1009.08 1008.34 1007.98 1008.00 1008.29 1008.74 1009.21 1009.59 1009.83 1009.94 1009.97 1010.01 1010.15 1010.47 1011.00 1011.73 1012.59 1013.50 1014.36 1015.10 1015.68 1016.08 1016.34 1016.52 1016.69 1016.91 1017.21 1017.59 1018.02 1018.48 1018.89 1019.24 1019.49 1019.64 1019.73 1019.80 1019.87 1019.99
1010.73 1011.96 1013.23 1014.32 1015.03 1015.24 1014.89 1014.02 1012.76 1011.32 1009.93 1008.77 1008.00 1007.67 1007.76 1008.18 1008.78 1009.41 1009.95 1010.33 1010.54 1010.62 1010.66 1010.74 1010.97 1011.37 1011.96 1012.68 1013.46 1014.22 1014.90 1015.44 1015.84 1016.13 1016.35 1016.56 1016.81 1017.14 1017.55 1018.00 1018.47 1018.89 1019.24 1019.50 1019.66 1019.76 1019.83 1019.90 1020.02
1010.86 1012.18 1013.49 1014.58 1015.25 1015.38 1014.93 1013.94 1012.58 1011.04 1009.57 1008.38 1007.61 1007.33 1007.50 1008.03 1008.77 1009.55 1010.25 1010.76 1011.08 1011.22 1011.28 1011.33 1011.48 1011.77 1012.22 1012.79 1013.45 1014.10 1014.71 1015.21 1015.60 1015.90 1016.15 1016.40 1016.69 1017.05 1017.47 1017.93 1018.40 1018.83 1019.18 1019.44 1019.61 1019.72 1019.79 1019.86 1019.97
1011.02 1012.34 1013.61 1014.63 1015.22 1015.25 1014.69 1013.62 1012.19 1010.61 1009.13 1007.95 1007.21 1006.98 1007.23 1007.85 1008.69 1009.60 1010.41 1011.04 1011.46 1011.68 1011.77 1011.82 1011.92 1012.12 1012.46 1012.92 1013.45 1014.01 1014.54 1014.99 1015.37 1015.67 1015.94 1016.22 1016.53 1016.90 1017.33 1017.79 1018.25 1018.66 1019.01 1019.27 1019.45 1019.56 1019.64 1019.72 1019.83
1011.11 1012.34 1013.49 1014.39 1014.85 1014.77 1014.14 1013.03 1011.60 1010.06 1008.63 1007.51 1006.84 1006.67 1006.97 1007.65 1008.55 1009.52 1010.40 1011.11 1011.60 1011.89 1012.03 1012.11 1012.20 1012.37 1012.64 1013.02 1013.46 1013.94 1014.40 1014.81 1015.15 1015.45 1015.72 1016.00 1016.32 1016.69 1017.10 1017.54 1017.98 1018.37 1018.71 1018.96 1019.13 1019.25 1019.34 1019.43 1019.55
1011.05 1012.12 1013.10 1013.82 1014.14 1013.97 1013.31 1012.22 1010.86 1009.43 1008.12 1007.12 1006.54 1006.43 1006.76 1007.45 1008.35 1009.31 1010.21 1010.94 1011.48 1011.82 1012.02 1012.15 1012.27 1012.45 1012.71 1013.05 1013.45 1013.86 1014.26 1014.63 1014.94 1015.21 1015.47 1015.73 1016.04 1016.38 1016.77 1017.18 1017.58 1017.95 1018.26 1018.50 1018.68 1018.80 1018.90 1019.00 1019.12
Thickness
5797 5794 5790 5779 5760 5744 5744 5758 5768 5770 5773 5781 5784 5779 5772 5767 5759 5757 5779 5788 5786 5781 5777 5774 5772 5770 5768 5767 5766 5765 5764 5763 5762 5761 5760 5759 5758 5756 5755 5754 5753 5752 5751 5750 5749 5748 5747 5747 5746
5797 5793 5783 5769 5749 5734 5745 5765 5768 5774 5781 5786 5784 5778 5772 5769 5774 5774 5778 5783 5784 5779 5775 5773 5770 5768 5766 5764 5763 5762 5761 5760 5759 5758 5757 5756 5755 5754 5753 5752 5750 5749 5748 5748 5747 5746 5745 5745 5745
5797 5792 5772 5757 5746 5740 5753 5772 5775 5783 5787 5784 5778 5777 5772 5769 5774 5775 5780 5782 5779 5775 5772 5771 5769 5766 5764 5762 5761 5760 5759 5758 5757 5755 5754 5753 5752 5751 5750 5749 5747 5747 5746 5745 5744 5744 5743 5742 5742
5792 5779 5767 5751 5746 5758 5769 5779 5782 5780 5782 5783 5777 5769 5772 5778 5778 5779 5780 5779 5775 5772 5769 5768 5767 5764 5761 5760 5759 5758 5757 5756 5755 5753 5752 5751 5749 5748 5747 5746 5744 5744 5743 5743 5742 5741 5740 5739 5739
5786 5768 5752 5742 5749 5768 5782 5788 5786 5778 5776 5779 5775 5765 5765 5775 5781 5780 5777 5774 5771 5768 5766 5765 5764 5762 5759 5758 5757 5756 5754 5754 5753 5751 5749 5748 5747 5745 5744 5743 5741 5741 5740 5740 5739 5738 5737 5737 5737
5771 5759 5741 5737 5753 5776 5788 5793 5787 5779 5776 5777 5772 5762 5762 5772 5774 5773 5773 5769 5768 5765 5762 5761 5760 5759 5757 5755 5754 5753 5752 5751 5750 5749 5747 5746 5745 5743 5742 5740 5739 5738 5737 5737 5736 5735 5735 5735 5734
5765 5751 5743 5746 5753 5769 5786 5793 5785 5778 5774 5775 5775 5760 5759 5765 5769 5770 5768 5765 5762 5760 5759 5757 5756 5755 5754 5753 5751 5751 5750 5749 5748 5747 5745 5744 5743 5741 5739 5737 5736 5735 5735 5734 5734 5733 5733 5732 5732
5775 5754 5747 5747 5755 5767 5787 5791 5789 5781 5776 5784 5778 5761 5756 5763 5765 5763 5760 5758 5756 5755 5754 5754 5753 5752 5751 5750 5749 5749 5747 5747 5746 5744 5743 5742 5740 5739 5737 5735 5734 5734 5733 5732 5732 5731 5731 5730 5729
5778 5749 5740 5751 5762 5774 5788 5785 5787 5790 5781 5779 5778 5773 5771 5768 5761 5755 5750 5748 5748 5748 5749 5750 5749 5749 5748 5747 5747 5746 5745 5744 5743 5742 5741 5739 5738 5736 5734 5733 5732 5731 5731 5731 5730 5730 5729 5728 5727
5768 5745 5755 5773 5781 5784 5788 5787 5785 5780 5772 5769 5769 5771 5770 5763 5756 5749 5745 5743 5742 5742 5744 5746 5746 5746 5745 5745 5744 5743 5743 5741 5741 5740 5738 5737 5736 5734 5732 5731 5730 5729 5729 5729 5728 5728 5727 5726 5725
5769 5761 5776 5787 5793 5792 5788 5788 5789 5778 5766 5770 5768 5765 5763 5756 5751 5746 5743 5742 5741 5741 5742 5742 5742 5743 5742 5741 5741 5740 5739 5738 5737 5736 5736 5734 5733 5731 5730 5729 5728 5727 5727 5727 5727 5726 5725 5724 5723
5773 5779 5786 5793 5799 5795 5790 5788 5782 5779 5779 5785 5779 5770 5762 5755 5749 5746 5741 5739 5739 5738 5738 5740 5740 5739 5739 5739 5738 5737 5736 5735 5734 5734 5733 5732 5730 5729 5728 5727 5726 5725 5725 5725 5724 5724 5723 5722 5721
5779 5785 5795 5799 5798 5796 5793 5785 5781 5778 5784 5784 5777 5767 5760 5755 5750 5746 5743 5741 5739 5737 5737 5738 5738 5737 5737 5736 5735 5734 5733 5733 5732 5732 5731 5730 5729 5727 5726 5725 5724 5724 5723 5723 5722 5721 5721 5720 5720
5787 5790 5792 5795 5796 5796 5788 5783 5779 5777 5781 5776 5770 5763 5760 5754 5749 5744 5741 5739 5738 5737 5737 5736 5735 5735 5734 5733 5733 5732 5731 5731 5730 5730 5729 5728 5727 5726 5725 5723 5722 5722 5721 5721 5720 5719 5719 5718 5717
5790 5783 5785 5792 5793 5792 5787 5774 5774 5779 5777 5770 5765 5761 5757 5753 5748 5744 5742 5739 5737 5736 5735 5734 5733 5733 5732 5731 5730 5730 5729 5729 5728 5727 5727 5726 5726 5725 5724 5722 5721 5720 5720 5719 5718 5717 5717 5716 5716
5780 5768 5762 5781 5789 5789 5778 5761 5775 5778 5772 5763 5760 5757 5753 5750 5748 5746 5742 5738 5736 5735 5734 5733 5734 5732 5730 5729 5728 5727 5727 5726 5726 5725 5725 5724 5724 5724 5723 5721 5720 5719 5718 5717 5716 5715 5714 5713 5713
5755 5746 5752 5768 5785 5783 5773 5762 5773 5774 5768 5760 5757 5753 5750 5746 5744 5744 5742 5739 5735 5733 5732 5731 5731 5730 5728 5727 5726 5725 5725 5724 5723 5723 5723 5722 5722 5722 5722 5720 5719 5718 5717 5716 5715 5713 5712 5711 5710
5744 5745 5750 5756 5775 5775 5765 5762 5769 5769 5765 5760 5756 5752 5748 5745 5744 5743 5741 5738 5735 5732 5731 5730 5728 5727 5726 5724 5723 5722 5722 5722 5721 5721 5721 5721 5720 5720 5720 5718 5717 5716 5715 5714 5713 5712 5711 5710 5709
5756 5750 5747 5761 5777 5769 5762 5761 5764 5765 5761 5757 5753 5750 5746 5744 5744 5742 5739 5737 5733 5730 5728 5728 5726 5725 5723 5722 5720 5719 5718 5718 5718 5719 5719 5719 5719 5718 5718 5717 5715 5715 5714 5713 5712 5711 5709 5708 5708
5755 5748 5749 5763 5774 5767 5758 5758 5764 5763 5759 5758 5755 5751 5748 5744 5740 5738 5737 5735 5732 5730 5728 5726 5725 5724 5723 5723 5722 5721 5719 5716 5717 5717 5717 5717 5717 5717 5717 5715 5714 5714 5713 5712 5712 5711 5708 5707 5706
5755 5750 5752 5754 5764 5762 5754 5749 5756 5760 5761 5758 5756 5754 5751 5747 5742 5739 5736 5734 5732 5729 5728 5727 5724 5724 5723 5722 5720 5718 5716 5714 5713 5714 5714 5715 5716 5716 5716 5714 5714 5713 5712 5711 5711 5711 5709 5706 5705
5748 5764 5763 5758 5746 5735 5741 5724 5745 5751 5751 5754 5754 5752 5751 5749 5746 5741 5738 5735 5733 5732 5731 5729 5726 5725 5724 5723 5721 5718 5715 5713 5714 5714 5714 5714 5714 5714 5715 5714 5713 5712 5712 5711 5711 5711 5710 5708 5705
5762 5768 5761 5753 5742 5731 5732 5723 5732 5745 5745 5750 5753 5754 5754 5751 5747 5744 5741 5738 5735 5734 5733 5730 5727 5725 5724 5723 5722 5720 5717 5716 5714 5713 5713 5712 5712 5713 5713 5713 5712 5712 5711 5710 5710 5710 5710 5709 5707
5771 5759 5748 5735 5726 5717 5727 5720 5724 5737 5747 5752 5755 5756 5756 5754 5751 5747 5744 5739 5736 5734 5732 5730 5728 5726 5724 5722 5722 5721 5718 5716 5713 5712 5711 5711 5711 5711 5712 5712 5712 5711 5710 5710 5709 5709 5709 5708 5707
5761 5735 5712 5711 5702 5709 5726 5721 5726 5752 5759 5758 5757 5758 5758 5757 5753 5749 5744 5739 5737 5735 5732 5730 5728 5725 5724 5722 5721 5721 5719 5718 5716 5714 5712 5711 5710 5710 5711 5712 5711 5710 5710 5709 5708 5707 5707 5706 5706
5751 5737 5711 5701 5698 5708 5722 5719 5740 5763 5766 5765 5763 5761 5760 5757 5755 5752 5748 5744 5740 5737 5734 5730 5727 5725 5724 5722 5721 5721 5720 5719 5718 5717 5715 5714 5714 5714 5713 5712 5711 5710 5709 5709 5707 5706 5705 5704 5703
5746 5735 5737 5713 5708 5703 5712 5726 5747 5764 5763 5763 5762 5760 5758 5757 5756 5754 5750 5747 5743 5739 5736 5733 5729 5726 5725 5724 5722 5720 5720 5719 5718 5717 5716 5715 5715 5714 5713 5712 5710 5709 5709 5708 5706 5705 5703 5702 5701
5758 5740 5721 5709 5698 5696 5710 5719 5728 5750 5755 5758 5758 5757 5757 5757 5755 5754 5751 5748 5745 5742 5739 5736 5732 5729 5727 5725 5723 5722 5720 5719 5718 5717 5715 5715 5715 5714 5712 5711 5710 5708 5707 5706 5705 5703 5702 5700 5699
5743 5735 5723 5708 5707 5695 5695 5715 5750 5753 5757 5756 5758 5758 5758 5756 5755 5754 5752 5750 5747 5743 5739 5736 5733 5729 5726 5725 5723 5722 5720 5719 5718 5716 5716 5715 5714 5713 5711 5710 5709 5707 5706 5705 5702 5701 5699 5697 5696
5752 5739 5724 5714 5707 5702 5699 5718 5761 5759 5759 5758 5757 5758 5758 5756 5755 5753 5751 5749 5746 5742 5739 5736 5733 5729 5728 5726 5724 5722 5720 5718 5716 5715 5715 5714 5713 5712 5710 5709 5707 5706 5705 5703 5700 5698 5697 5695 5693